MOLNIYA 1-53

Last updated on Sept. 19, 2020, 5:46 a.m. UTC

1 13070U 82015A   20262.26313673  .00001620  00000-0  20673-3 0  9990
2 13070  62.4113 305.1992 7424744 277.4685  11.5427  2.00591592282465
UTC
Height (km)
Latitude
Longitude
Inclination
Orbital Period
UTC large
Height (km)
Speed (km/s)
/
Latitude / Longitude
Inclination (degrees)
Orbital Period (minutes)
Azimuth
Elevation
Range (km)
Doppler Factor
iOS Compass Heading
iOS Angle

Next 30 passes for location: Hong Kong

Rise time Rise Azimuth (degrees) Set time Set Azimuth (degrees) Duration Max altitude (degrees)

No matching passes for this satellites